| time (UTC) | temp F | wind direction | speed MPH | gust MPH | rain 1hr in | rain 24hr in | rain mn in | humidity % | barometer mb |
| 20260510095640 | 58 | 109 | 0.0 | 0.0 | 0.00 | 0.00 | 0.00 | 99 | 1015.5 |
| 20260510095136 | 58 | 111 | 0.0 | 0.0 | 0.00 | 0.00 | 0.00 | 99 | 1015.4 |
| 20260510094634 | 58 | 113 | 0.0 | 0.0 | 0.00 | 0.00 | 0.00 | 99 | 1015.1 |
| 20260510094130 | 57 | 110 | 0.0 | 0.0 | 0.00 | 0.00 | 0.00 | 99 | 1015.0 |
| 20260510093621 | 57 | 108 | 0.0 | 0.0 | 0.00 | 0.00 | 0.00 | 99 | 1014.8 |
| 20260510093119 | 57 | 108 | 0.0 | 0.0 | 0.00 | 0.00 | 0.00 | 99 | 1014.8 |
| 20260510092615 | 57 | 106 | 0.0 | 0.0 | 0.00 | 0.00 | 0.00 | 99 | 1015.0 |
| 20260510092115 | 57 | 111 | 0.0 | 0.0 | 0.00 | 0.00 | 0.00 | 99 | 1014.7 |
| 20260510091612 | 57 | 108 | 0.0 | 0.0 | 0.00 | 0.00 | 0.00 | 99 | 1014.5 |
| 20260510091108 | 56 | 111 | 0.0 | 0.0 | 0.00 | 0.00 | 0.00 | 99 | 1014.5 |
| 20260510090605 | 57 | 110 | 0.0 | 0.0 | 0.00 | 0.00 | 0.00 | 99 | 1014.5 |
| 20260510090101 | 57 | 110 | 0.0 | 0.0 | 0.00 | 0.00 | 0.00 | 99 | 1014.5 |
| 20260510085556 | 57 | 110 | 0.0 | 0.0 | 0.00 | 0.00 | 0.00 | 99 | 1014.5 |
| 20260510085052 | 57 | 108 | 0.0 | 0.0 | 0.00 | 0.00 | 0.00 | 99 | 1014.4 |
| 20260510084548 | 57 | 109 | 0.0 | 0.0 | 0.00 | 0.00 | 0.00 | 99 | 1014.3 |
| 20260510084045 | 57 | 109 | 0.0 | 0.0 | 0.00 | 0.00 | 0.00 | 99 | 1014.3 |
| 20260510083542 | 57 | 111 | 0.0 | 0.0 | 0.00 | 0.00 | 0.00 | 99 | 1014.1 |
| 20260510083038 | 57 | 111 | 0.0 | 0.0 | 0.00 | 0.00 | 0.00 | 99 | 1014.3 |
| 20260510082535 | 57 | 110 | 0.0 | 0.0 | 0.00 | 0.00 | 0.00 | 99 | 1014.1 |
| 20260510082030 | 57 | 110 | 0.0 | 0.0 | 0.00 | 0.00 | 0.00 | 99 | 1014.3 |
| 20260510081526 | 57 | 114 | 0.0 | 0.0 | 0.00 | 0.00 | 0.00 | 99 | 1014.2 |
| 20260510081022 | 57 | 112 | 0.0 | 0.0 | 0.00 | 0.00 | 0.00 | 99 | 1013.9 |
| 20260510080521 | 57 | 111 | 0.0 | 0.0 | 0.00 | 0.00 | 0.00 | 99 | 1014.1 |
| 20260510080018 | 57 | 110 | 0.0 | 0.0 | 0.00 | 0.00 | 0.00 | 99 | 1014.1 |
| 20260510075515 | 57 | 111 | 0.0 | 0.0 | 0.00 | 0.00 | 0.00 | 99 | 1014.1 |
| 20260510075012 | 58 | 114 | 0.0 | 0.0 | 0.00 | 0.00 | 0.00 | 99 | 1014.2 |
| 20260510074510 | 58 | 110 | 0.0 | 0.0 | 0.00 | 0.00 | 0.00 | 99 | 1014.2 |
| 20260510074005 | 58 | 109 | 0.0 | 0.0 | 0.00 | 0.00 | 0.00 | 99 | 1014.1 |
| 20260510073501 | 58 | 111 | 0.0 | 0.0 | 0.00 | 0.00 | 0.00 | 99 | 1014.3 |
| 20260510072958 | 58 | 110 | 0.0 | 0.0 | 0.00 | 0.00 | 0.00 | 99 | 1014.1 |
| 20260510072454 | 58 | 110 | 0.0 | 0.0 | 0.00 | 0.00 | 0.00 | 99 | 1014.2 |
| 20260510071950 | 58 | 110 | 0.0 | 0.0 | 0.00 | 0.00 | 0.00 | 99 | 1014.1 |
| 20260510071446 | 58 | 111 | 0.0 | 0.0 | 0.00 | 0.00 | 0.00 | 99 | 1014.1 |
| 20260510070945 | 58 | 111 | 0.0 | 0.0 | 0.00 | 0.00 | 0.00 | 99 | 1014.3 |
| 20260510070442 | 59 | 110 | 0.0 | 0.0 | 0.00 | 0.00 | 0.00 | 99 | 1014.3 |
| 20260510065937 | 58 | 110 | 0.0 | 0.0 | 0.00 | 0.00 | 0.00 | 99 | 1014.1 |
| 20260510065435 | 58 | 111 | 0.0 | 0.0 | 0.00 | 0.00 | 0.00 | 99 | 1014.1 |
| 20260510064930 | 58 | 111 | 0.0 | 0.0 | 0.00 | 0.00 | 0.00 | 99 | 1014.4 |
| 20260510064428 | 59 | 108 | 0.0 | 0.0 | 0.00 | 0.00 | 0.00 | 99 | 1014.5 |
| 20260510063925 | 58 | 109 | 0.0 | 0.0 | 0.00 | 0.00 | 0.00 | 99 | 1014.3 |
| 20260510063420 | 59 | 110 | 0.0 | 0.0 | 0.00 | 0.00 | 0.00 | 99 | 1014.9 |
| 20260510062919 | 59 | 110 | 0.0 | 0.0 | 0.00 | 0.00 | 0.00 | 99 | 1014.4 |
| 20260510062414 | 59 | 111 | 0.0 | 0.0 | 0.00 | 0.00 | 0.00 | 99 | 1014.6 |
| 20260510061909 | 59 | 110 | 0.0 | 0.0 | 0.00 | 0.00 | 0.00 | 99 | 1014.6 |
| 20260510061406 | 59 | 110 | 0.0 | 0.0 | 0.00 | 0.00 | 0.00 | 99 | 1014.6 |
| 20260510060902 | 59 | 109 | 0.0 | 0.0 | 0.00 | 0.00 | 0.00 | 99 | 1014.5 |
| 20260510060359 | 59 | 109 | 0.0 | 0.0 | 0.00 | 0.00 | 0.00 | 99 | 1014.5 |
| 20260510055855 | 59 | 110 | 0.0 | 0.0 | 0.00 | 0.00 | 0.00 | 99 | 1014.6 |
| 20260510055355 | 59 | 110 | 0.0 | 0.0 | 0.00 | 0.00 | 0.00 | 99 | 1014.5 |
| 20260510054848 | 59 | 111 | 0.0 | 0.0 | 0.00 | 0.00 | 0.00 | 99 | 1014.6 |
| 20260510054344 | 60 | 111 | 0.0 | 0.0 | 0.00 | 0.00 | 0.00 | 99 | 1014.8 |
| 20260510053839 | 60 | 111 | 0.0 | 0.0 | 0.00 | 0.00 | 0.00 | 99 | 1015.0 |
| 20260510053335 | 60 | 111 | 0.0 | 0.0 | 0.00 | 0.00 | 0.00 | 99 | 1014.7 |
| 20260510052832 | 60 | 110 | 0.0 | 0.0 | 0.00 | 0.00 | 0.00 | 99 | 1014.7 |
| 20260510052327 | 60 | 109 | 0.0 | 0.0 | 0.00 | 0.00 | 0.00 | 99 | 1014.6 |
| 20260510051824 | 60 | 111 | 0.0 | 0.0 | 0.00 | 0.00 | 0.00 | 99 | 1014.8 |
| 20260510051321 | 60 | 111 | 0.0 | 0.0 | 0.00 | 0.00 | 0.00 | 99 | 1014.6 |
| 20260510050818 | 60 | 110 | 0.0 | 0.0 | 0.00 | 0.00 | 0.00 | 99 | 1014.7 |
| 20260510050314 | 60 | 110 | 0.0 | 0.0 | 0.00 | 0.00 | 0.00 | 99 | 1014.9 |
| 20260510045811 | 61 | 112 | 0.0 | 0.0 | 0.00 | 0.01 | 0.01 | 99 | 1014.8 |
| 20260510045308 | 61 | 108 | 0.0 | 0.0 | 0.00 | 0.01 | 0.01 | 99 | 1014.6 |
| 20260510044805 | 61 | 110 | 0.0 | 0.0 | 0.00 | 0.01 | 0.01 | 99 | 1014.7 |
| 20260510044302 | 61 | 110 | 0.0 | 0.0 | 0.00 | 0.01 | 0.01 | 99 | 1014.6 |
| 20260510043758 | 61 | 109 | 0.0 | 0.0 | 0.00 | 0.01 | 0.01 | 99 | 1014.8 |
| 20260510043248 | 61 | 111 | 0.0 | 0.0 | 0.00 | 0.01 | 0.01 | 99 | 1014.8 |
| 20260510042746 | 61 | 110 | 0.0 | 0.0 | 0.00 | 0.01 | 0.01 | 99 | 1014.7 |
| 20260510042241 | 61 | 110 | 0.0 | 0.0 | 0.00 | 0.01 | 0.01 | 99 | 1014.7 |
| 20260510041738 | 61 | 110 | 0.0 | 0.0 | 0.00 | 0.01 | 0.01 | 99 | 1014.9 |
| 20260510041230 | 62 | 110 | 0.0 | 0.0 | 0.00 | 0.01 | 0.01 | 99 | 1014.7 |
| 20260510040727 | 62 | 111 | 0.0 | 0.0 | 0.00 | 0.01 | 0.01 | 99 | 1015.0 |
| 20260510040224 | 62 | 111 | 0.0 | 0.0 | 0.00 | 0.01 | 0.01 | 99 | 1014.9 |
| 20260510035719 | 62 | 110 | 0.0 | 0.0 | 0.00 | 0.01 | 0.01 | 99 | 1015.0 |
| 20260510035215 | 62 | 110 | 0.0 | 0.0 | 0.00 | 0.01 | 0.01 | 99 | 1014.9 |
| 20260510034711 | 62 | 110 | 0.0 | 0.0 | 0.00 | 0.01 | 0.01 | 99 | 1014.9 |
| 20260510034209 | 62 | 110 | 0.0 | 0.0 | 0.00 | 0.01 | 0.01 | 99 | 1014.9 |
| 20260510033705 | 62 | 111 | 0.0 | 0.0 | 0.00 | 0.01 | 0.01 | 99 | 1014.8 |
| 20260510033203 | 62 | 110 | 0.0 | 0.0 | 0.00 | 0.01 | 0.01 | 99 | 1014.9 |
| 20260510032659 | 63 | 110 | 0.0 | 0.0 | 0.00 | 0.01 | 0.01 | 99 | 1015.1 |
| 20260510032155 | 63 | 111 | 0.0 | 0.0 | 0.00 | 0.01 | 0.01 | 99 | 1014.9 |
| 20260510031649 | 63 | 111 | 0.0 | 0.0 | 0.00 | 0.01 | 0.01 | 99 | 1015.3 |
| 20260510031146 | 63 | 110 | 0.0 | 0.0 | 0.00 | 0.01 | 0.01 | 99 | 1014.8 |
| 20260510030641 | 64 | 110 | 0.0 | 0.0 | 0.00 | 0.01 | 0.01 | 99 | 1014.8 |
| 20260510030139 | 64 | 109 | 0.0 | 0.0 | 0.00 | 0.01 | 0.01 | 99 | 1014.8 |
| 20260510025636 | 64 | 108 | 0.0 | 0.0 | 0.00 | 0.01 | 0.01 | 99 | 1014.8 |
| 20260510025133 | 64 | 110 | 0.0 | 0.0 | 0.00 | 0.01 | 0.01 | 99 | 1015.0 |
| 20260510024629 | 64 | 110 | 0.0 | 0.0 | 0.00 | 0.01 | 0.01 | 99 | 1015.0 |
| 20260510024126 | 64 | 110 | 0.0 | 0.0 | 0.00 | 0.01 | 0.01 | 99 | 1014.7 |
| 20260510023622 | 64 | 109 | 0.0 | 0.0 | 0.00 | 0.01 | 0.01 | 99 | 1014.8 |
| 20260510023120 | 64 | 109 | 0.0 | 0.0 | 0.00 | 0.01 | 0.01 | 99 | 1014.8 |
| 20260510022619 | 64 | 108 | 0.0 | 0.0 | 0.00 | 0.01 | 0.01 | 99 | 1014.5 |
| 20260510022114 | 64 | 110 | 0.0 | 0.0 | 0.00 | 0.01 | 0.01 | 99 | 1014.5 |
| 20260510021610 | 64 | 108 | 0.0 | 0.0 | 0.00 | 0.01 | 0.01 | 99 | 1014.4 |
| 20260510021108 | 65 | 109 | 0.0 | 0.0 | 0.00 | 0.01 | 0.01 | 99 | 1014.5 |
| 20260510020602 | 65 | 109 | 0.0 | 0.0 | 0.00 | 0.01 | 0.01 | 98 | 1014.3 |
| 20260510020058 | 65 | 110 | 0.0 | 0.0 | 0.00 | 0.01 | 0.01 | 98 | 1014.3 |
| 20260510015554 | 65 | 110 | 0.0 | 0.0 | 0.00 | 0.01 | 0.01 | 98 | 1014.1 |
| 20260510015050 | 65 | 110 | 0.0 | 0.0 | 0.00 | 0.01 | 0.01 | 98 | 1014.1 |
| 20260510014546 | 65 | 110 | 0.0 | 0.0 | 0.00 | 0.01 | 0.01 | 98 | 1013.9 |
| 20260510014044 | 65 | 108 | 0.0 | 0.0 | 0.00 | 0.01 | 0.01 | 98 | 1013.9 |
| 20260510013538 | 66 | 108 | 0.0 | 0.0 | 0.00 | 0.01 | 0.01 | 98 | 1013.6 |
| 20260510013034 | 66 | 110 | 0.0 | 0.0 | 0.00 | 0.01 | 0.01 | 98 | 1013.6 |
| 20260510012528 | 66 | 110 | 0.0 | 0.0 | 0.00 | 0.01 | 0.01 | 98 | 1013.6 |
| 20260510012025 | 66 | 110 | 0.0 | 0.0 | 0.00 | 0.01 | 0.01 | 98 | 1013.9 |
| 20260510011524 | 66 | 110 | 0.0 | 0.0 | 0.00 | 0.01 | 0.01 | 98 | 1013.6 |
| 20260510011020 | 66 | 110 | 0.0 | 0.0 | 0.00 | 0.01 | 0.01 | 98 | 1013.6 |
| 20260510010517 | 66 | 110 | 0.0 | 0.0 | 0.00 | 0.01 | 0.01 | 97 | 1013.3 |
| 20260510010014 | 67 | 110 | 0.0 | 0.0 | 0.00 | 0.01 | 0.01 | 97 | 1013.2 |
| 20260510005510 | 67 | 110 | 0.0 | 0.0 | 0.00 | 0.01 | 0.01 | 97 | 1013.2 |
| 20260510005008 | 67 | 110 | 0.0 | 0.0 | 0.00 | 0.01 | 0.01 | 97 | 1013.2 |
| 20260510004505 | 67 | 108 | 0.0 | 0.0 | 0.00 | 0.01 | 0.01 | 96 | 1013.0 |
| 20260510004003 | 68 | 110 | 0.0 | 0.0 | 0.00 | 0.01 | 0.01 | 96 | 1013.2 |
| 20260510003459 | 68 | 110 | 0.0 | 0.0 | 0.00 | 0.01 | 0.01 | 95 | 1013.2 |
| 20260510002954 | 68 | 110 | 0.0 | 0.0 | 0.00 | 0.01 | 0.01 | 95 | 1013.0 |
| 20260510002451 | 68 | 110 | 0.0 | 0.0 | 0.00 | 0.01 | 0.01 | 94 | 1013.3 |
| 20260510001947 | 69 | 110 | 0.0 | 0.0 | 0.00 | 0.01 | 0.01 | 94 | 1013.2 |
| 20260510001445 | 69 | 111 | 0.0 | 0.0 | 0.00 | 0.01 | 0.01 | 94 | 1013.2 |
| 20260510000942 | 69 | 110 | 0.0 | 0.0 | 0.00 | 0.01 | 0.01 | 93 | 1013.1 |
| 20260510000440 | 70 | 110 | 0.0 | 0.0 | 0.00 | 0.01 | 0.01 | 92 | 1012.8 |
| 20260509235935 | 70 | 116 | 0.0 | 0.0 | 0.00 | 0.01 | 0.01 | 92 | 1012.4 |
| 20260509235432 | 70 | 111 | 0.0 | 0.0 | 0.00 | 0.01 | 0.01 | 93 | 1012.8 |
| 20260509234928 | 70 | 111 | 0.0 | 0.0 | 0.00 | 0.01 | 0.01 | 93 | 1012.5 |
| 20260509234425 | 70 | 111 | 0.0 | 0.0 | 0.00 | 0.01 | 0.01 | 93 | 1012.6 |
| 20260509233923 | 70 | 110 | 0.0 | 0.0 | 0.00 | 0.01 | 0.01 | 92 | 1012.5 |
| 20260509233420 | 70 | 109 | 0.0 | 0.0 | 0.00 | 0.01 | 0.01 | 91 | 1012.4 |
| 20260509232916 | 70 | 110 | 0.0 | 0.0 | 0.00 | 0.01 | 0.01 | 90 | 1012.2 |
| 20260509232414 | 71 | 111 | 0.0 | 0.0 | 0.00 | 0.01 | 0.01 | 90 | 1012.4 |
| 20260509231909 | 71 | 110 | 0.0 | 0.0 | 0.00 | 0.01 | 0.01 | 89 | 1012.6 |
| 20260509231407 | 71 | 111 | 0.0 | 0.0 | 0.00 | 0.01 | 0.01 | 89 | 1012.5 |
| 20260509230905 | 71 | 111 | 0.0 | 0.0 | 0.00 | 0.01 | 0.01 | 88 | 1012.3 |
| 20260509230401 | 72 | 111 | 0.0 | 0.0 | 0.00 | 0.01 | 0.01 | 88 | 1012.3 |
| 20260509225857 | 72 | 110 | 0.0 | 0.0 | 0.00 | 0.01 | 0.01 | 87 | 1012.2 |
| 20260509225354 | 72 | 110 | 0.0 | 0.0 | 0.00 | 0.01 | 0.01 | 86 | 1012.1 |
| 20260509224849 | 72 | 111 | 0.0 | 0.0 | 0.00 | 0.01 | 0.01 | 85 | 1012.1 |
| 20260509224346 | 73 | 112 | 0.0 | 0.0 | 0.00 | 0.01 | 0.01 | 85 | 1011.9 |
| 20260509223843 | 73 | 111 | 0.0 | 0.0 | 0.00 | 0.01 | 0.01 | 85 | 1011.9 |
| 20260509223339 | 73 | 110 | 0.0 | 0.0 | 0.00 | 0.01 | 0.01 | 85 | 1011.9 |
| 20260509222837 | 73 | 110 | 0.0 | 0.0 | 0.00 | 0.01 | 0.01 | 85 | 1012.0 |
| 20260509222332 | 73 | 110 | 0.0 | 0.0 | 0.00 | 0.01 | 0.01 | 85 | 1011.8 |
| 20260509221827 | 73 | 111 | 0.0 | 0.0 | 0.00 | 0.01 | 0.01 | 85 | 1011.8 |
| 20260509221325 | 73 | 110 | 0.0 | 0.0 | 0.00 | 0.01 | 0.01 | 84 | 1011.8 |
| 20260509220825 | 72 | 110 | 0.0 | 0.0 | 0.00 | 0.01 | 0.01 | 83 | 1011.7 |
| 20260509220321 | 72 | 111 | 0.0 | 0.0 | 0.00 | 0.01 | 0.01 | 83 | 1011.8 |
| 20260509215817 | 73 | 110 | 0.0 | 0.0 | 0.00 | 0.01 | 0.01 | 83 | 1011.9 |
| 20260509215314 | 74 | 110 | 0.0 | 0.0 | 0.00 | 0.01 | 0.01 | 80 | 1011.8 |
| 20260509214811 | 74 | 111 | 0.0 | 0.0 | 0.00 | 0.01 | 0.01 | 79 | 1011.6 |
| 20260509214308 | 73 | 111 | 0.0 | 0.0 | 0.00 | 0.01 | 0.01 | 80 | 1012.0 |
| 20260509213805 | 73 | 117 | 0.0 | 0.0 | 0.00 | 0.01 | 0.01 | 80 | 1011.9 |
| 20260509213300 | 73 | 110 | 0.0 | 0.0 | 0.00 | 0.01 | 0.01 | 80 | 1011.9 |
| 20260509212758 | 73 | 114 | 0.0 | 0.0 | 0.00 | 0.01 | 0.01 | 78 | 1011.7 |
| 20260509212255 | 74 | 109 | 0.0 | 0.0 | 0.00 | 0.01 | 0.01 | 79 | 1011.9 |
| 20260509211751 | 74 | 145 | 1.0 | 2.0 | 0.00 | 0.01 | 0.01 | 77 | 1011.8 |
| 20260509211247 | 75 | 113 | 0.0 | 0.0 | 0.00 | 0.01 | 0.01 | 78 | 1011.8 |
| 20260509210744 | 74 | 111 | 0.0 | 0.0 | 0.00 | 0.01 | 0.01 | 77 | 1011.7 |
| 20260509210242 | 75 | 120 | 0.0 | 1.0 | 0.00 | 0.01 | 0.01 | 77 | 1011.8 |
| 20260509205741 | 74 | 155 | 1.0 | 1.0 | 0.00 | 0.01 | 0.01 | 78 | 1011.6 |
| 20260509205236 | 74 | 122 | 0.0 | 1.0 | 0.00 | 0.01 | 0.01 | 76 | 1011.7 |
| 20260509204732 | 75 | 111 | 0.0 | 0.0 | 0.00 | 0.01 | 0.01 | 76 | 1011.4 |
| 20260509204229 | 75 | 109 | 0.0 | 0.0 | 0.00 | 0.01 | 0.01 | 76 | 1011.7 |
| 20260509203725 | 75 | 111 | 0.0 | 0.0 | 0.00 | 0.01 | 0.01 | 75 | 1011.6 |
| 20260509203223 | 75 | 111 | 0.0 | 0.0 | 0.00 | 0.01 | 0.01 | 75 | 1011.8 |
| 20260509202718 | 75 | 112 | 0.0 | 1.0 | 0.00 | 0.01 | 0.01 | 75 | 1011.9 |
| 20260509202214 | 75 | 110 | 0.0 | 0.0 | 0.00 | 0.01 | 0.01 | 73 | 1011.6 |
| 20260509201709 | 76 | 115 | 0.0 | 0.0 | 0.00 | 0.01 | 0.01 | 74 | 1011.7 |
| 20260509201206 | 76 | 129 | 0.0 | 0.0 | 0.00 | 0.01 | 0.01 | 73 | 1011.7 |
| 20260509200702 | 76 | 111 | 0.0 | 0.0 | 0.00 | 0.01 | 0.01 | 72 | 1011.8 |
| 20260509200157 | 75 | 111 | 0.0 | 0.0 | 0.00 | 0.01 | 0.01 | 74 | 1011.5 |
| 20260509195654 | 75 | 122 | 1.0 | 1.0 | 0.00 | 0.01 | 0.01 | 73 | 1011.8 |
| 20260509195149 | 75 | 135 | 0.0 | 1.0 | 0.00 | 0.01 | 0.01 | 74 | 1011.9 |
| 20260509194649 | 75 | 108 | 0.0 | 0.0 | 0.00 | 0.01 | 0.01 | 76 | 1011.9 |
| 20260509194146 | 75 | 113 | 0.0 | 0.0 | 0.00 | 0.01 | 0.01 | 74 | 1012.2 |
| 20260509193642 | 75 | 111 | 0.0 | 0.0 | 0.00 | 0.01 | 0.01 | 76 | 1012.0 |
| 20260509193138 | 75 | 83 | 0.0 | 1.0 | 0.00 | 0.01 | 0.01 | 77 | 1012.2 |
| 20260509192635 | 75 | 153 | 1.0 | 2.0 | 0.00 | 0.01 | 0.01 | 75 | 1012.2 |
| 20260509192129 | 75 | 105 | 0.0 | 0.0 | 0.00 | 0.01 | 0.01 | 75 | 1012.1 |
| 20260509191624 | 74 | 109 | 0.0 | 0.0 | 0.00 | 0.01 | 0.01 | 77 | 1012.2 |
| 20260509191121 | 75 | 109 | 0.0 | 1.0 | 0.00 | 0.01 | 0.01 | 77 | 1012.2 |
| 20260509190617 | 76 | 111 | 0.0 | 0.0 | 0.00 | 0.01 | 0.01 | 75 | 1012.0 |
| 20260509190115 | 75 | 120 | 2.0 | 2.0 | 0.00 | 0.01 | 0.01 | 73 | 1012.1 |
| 20260509185612 | 74 | 105 | 0.0 | 0.0 | 0.00 | 0.01 | 0.01 | 74 | 1012.4 |
| 20260509185108 | 74 | 113 | 0.0 | 0.0 | 0.00 | 0.01 | 0.01 | 80 | 1012.3 |
| 20260509184607 | 73 | 102 | 0.0 | 0.0 | 0.00 | 0.01 | 0.01 | 80 | 1012.4 |
| 20260509184103 | 72 | 112 | 0.0 | 0.0 | 0.00 | 0.01 | 0.01 | 79 | 1012.3 |
| 20260509183558 | 73 | 113 | 1.0 | 1.0 | 0.00 | 0.01 | 0.01 | 79 | 1012.5 |
| 20260509183054 | 72 | 112 | 0.0 | 1.0 | 0.00 | 0.01 | 0.01 | 80 | 1012.5 |
| 20260509182551 | 73 | 110 | 0.0 | 1.0 | 0.00 | 0.01 | 0.01 | 79 | 1012.7 |
| 20260509182047 | 72 | 112 | 0.0 | 0.0 | 0.00 | 0.01 | 0.01 | 81 | 1012.6 |
| 20260509181546 | 71 | 104 | 0.0 | 0.0 | 0.00 | 0.01 | 0.01 | 82 | 1012.8 |
| 20260509181042 | 71 | 114 | 0.0 | 0.0 | 0.00 | 0.01 | 0.01 | 84 | 1012.9 |
| 20260509180538 | 70 | 108 | 1.0 | 1.0 | 0.00 | 0.01 | 0.01 | 84 | 1013.0 |
| 20260509180036 | 70 | 104 | 0.0 | 0.0 | 0.00 | 0.01 | 0.01 | 84 | 1013.2 |
| 20260509175531 | 70 | 110 | 1.0 | 1.0 | 0.00 | 0.01 | 0.01 | 83 | 1013.2 |
| 20260509175029 | 70 | 116 | 0.0 | 0.0 | 0.00 | 0.01 | 0.01 | 84 | 1013.1 |
| 20260509174526 | 70 | 112 | 0.0 | 1.0 | 0.00 | 0.01 | 0.01 | 87 | 1013.2 |
| 20260509174020 | 69 | 119 | 0.0 | 0.0 | 0.00 | 0.01 | 0.01 | 85 | 1013.0 |
| 20260509173514 | 69 | 109 | 0.0 | 0.0 | 0.00 | 0.01 | 0.01 | 87 | 1013.4 |
| 20260509173011 | 70 | 101 | 0.0 | 0.0 | 0.00 | 0.01 | 0.01 | 85 | 1013.5 |
| 20260509172508 | 70 | 112 | 0.0 | 0.0 | 0.00 | 0.01 | 0.01 | 86 | 1013.3 |
| 20260509172004 | 69 | 109 | 0.0 | 0.0 | 0.00 | 0.01 | 0.01 | 86 | 1013.5 |
| 20260509171500 | 69 | 109 | 0.0 | 0.0 | 0.00 | 0.01 | 0.01 | 86 | 1013.3 |
| 20260509170956 | 68 | 111 | 0.0 | 0.0 | 0.00 | 0.01 | 0.01 | 87 | 1013.3 |
| 20260509170452 | 68 | 109 | 0.0 | 1.0 | 0.00 | 0.01 | 0.01 | 88 | 1013.2 |
| 20260509165948 | 68 | 96 | 1.0 | 1.0 | 0.00 | 0.01 | 0.01 | 89 | 1013.1 |
| 20260509165447 | 68 | 106 | 0.0 | 0.0 | 0.00 | 0.01 | 0.01 | 90 | 1013.4 |
| 20260509164943 | 68 | 108 | 0.0 | 1.0 | 0.00 | 0.01 | 0.01 | 91 | 1013.3 |
| 20260509164439 | 68 | 104 | 0.0 | 1.0 | 0.00 | 0.01 | 0.01 | 90 | 1013.4 |
| 20260509163935 | 68 | 99 | 1.0 | 1.0 | 0.00 | 0.01 | 0.01 | 91 | 1013.3 |
| 20260509163433 | 67 | 110 | 0.0 | 0.0 | 0.00 | 0.01 | 0.01 | 91 | 1013.8 |
| 20260509162931 | 68 | 109 | 1.0 | 1.0 | 0.00 | 0.01 | 0.01 | 91 | 1013.6 |
| 20260509162431 | 68 | 97 | 0.0 | 1.0 | 0.00 | 0.01 | 0.01 | 93 | 1013.4 |
| 20260509161926 | 67 | 108 | 0.0 | 0.0 | 0.00 | 0.01 | 0.01 | 94 | 1013.4 |
| 20260509161423 | 66 | 104 | 0.0 | 0.0 | 0.00 | 0.01 | 0.01 | 93 | 1013.5 |
| 20260509160918 | 66 | 112 | 0.0 | 0.0 | 0.00 | 0.01 | 0.01 | 94 | 1013.8 |
| 20260509160414 | 66 | 119 | 0.0 | 0.0 | 0.00 | 0.01 | 0.01 | 94 | 1013.7 |
| 20260509155909 | 66 | 121 | 0.0 | 0.0 | 0.00 | 0.01 | 0.01 | 95 | 1013.8 |
| 20260509155407 | 66 | 121 | 1.0 | 1.0 | 0.00 | 0.01 | 0.01 | 96 | 1013.6 |
| 20260509154903 | 65 | 110 | 0.0 | 0.0 | 0.00 | 0.01 | 0.01 | 97 | 1013.5 |
| 20260509154359 | 65 | 101 | 0.0 | 0.0 | 0.00 | 0.01 | 0.01 | 97 | 1013.5 |
| 20260509153856 | 65 | 109 | 0.0 | 0.0 | 0.00 | 0.01 | 0.01 | 98 | 1013.5 |
| 20260509153353 | 64 | 109 | 0.0 | 0.0 | 0.00 | 0.01 | 0.01 | 98 | 1013.9 |
| 20260509152850 | 64 | 114 | 0.0 | 0.0 | 0.00 | 0.01 | 0.01 | 98 | 1013.5 |
| 20260509152346 | 64 | 108 | 0.0 | 0.0 | 0.00 | 0.01 | 0.01 | 98 | 1013.7 |
| 20260509151843 | 64 | 107 | 0.0 | 0.0 | 0.00 | 0.01 | 0.01 | 99 | 1013.8 |
| 20260509151339 | 64 | 110 | 0.0 | 0.0 | 0.00 | 0.01 | 0.01 | 99 | 1013.9 |
| 20260509150838 | 63 | 110 | 0.0 | 0.0 | 0.00 | 0.01 | 0.01 | 99 | 1013.6 |
| 20260509150335 | 63 | 109 | 0.0 | 1.0 | 0.00 | 0.01 | 0.01 | 99 | 1013.7 |
| 20260509145832 | 63 | 120 | 0.0 | 0.0 | 0.00 | 0.01 | 0.01 | 99 | 1013.6 |
| 20260509145327 | 63 | 107 | 0.0 | 0.0 | 0.00 | 0.01 | 0.01 | 99 | 1013.7 |
| 20260509144824 | 63 | 129 | 1.0 | 1.0 | 0.00 | 0.01 | 0.01 | 99 | 1013.6 |
| 20260509144321 | 63 | 108 | 0.0 | 0.0 | 0.00 | 0.01 | 0.01 | 99 | 1013.7 |
| 20260509143818 | 63 | 108 | 0.0 | 0.0 | 0.00 | 0.01 | 0.01 | 99 | 1013.3 |
| 20260509143315 | 63 | 104 | 0.0 | 0.0 | 0.00 | 0.01 | 0.01 | 99 | 1013.8 |
| 20260509142811 | 63 | 139 | 0.0 | 0.0 | 0.00 | 0.01 | 0.01 | 99 | 1013.5 |
| 20260509142307 | 63 | 126 | 0.0 | 0.0 | 0.00 | 0.01 | 0.01 | 99 | 1013.8 |
| 20260509141803 | 62 | 103 | 0.0 | 0.0 | 0.00 | 0.01 | 0.01 | 99 | 1013.6 |
| 20260509141300 | 62 | 115 | 0.0 | 0.0 | 0.00 | 0.01 | 0.01 | 99 | 1013.4 |
| 20260509140757 | 62 | 110 | 0.0 | 0.0 | 0.00 | 0.01 | 0.01 | 99 | 1013.7 |
| 20260509140254 | 62 | 109 | 0.0 | 0.0 | 0.00 | 0.01 | 0.01 | 99 | 1013.8 |
| 20260509135752 | 62 | 108 | 0.0 | 0.0 | 0.00 | 0.01 | 0.01 | 99 | 1013.9 |
| 20260509135249 | 62 | 105 | 0.0 | 0.0 | 0.00 | 0.01 | 0.01 | 99 | 1013.7 |
| 20260509134746 | 62 | 100 | 0.0 | 0.0 | 0.00 | 0.01 | 0.01 | 99 | 1013.9 |
| 20260509134244 | 62 | 91 | 0.0 | 1.0 | 0.00 | 0.01 | 0.01 | 99 | 1013.7 |
| 20260509133740 | 62 | 111 | 0.0 | 0.0 | 0.00 | 0.01 | 0.01 | 99 | 1013.8 |
| 20260509133237 | 62 | 114 | 0.0 | 0.0 | 0.00 | 0.01 | 0.01 | 99 | 1013.4 |
| 20260509132736 | 62 | 114 | 0.0 | 0.0 | 0.00 | 0.01 | 0.01 | 99 | 1013.2 |
| 20260509132234 | 62 | 120 | 0.0 | 0.0 | 0.00 | 0.01 | 0.01 | 99 | 1013.1 |
| 20260509131730 | 62 | 110 | 0.0 | 0.0 | 0.00 | 0.01 | 0.01 | 99 | 1013.2 |
| 20260509131227 | 62 | 132 | 0.0 | 0.0 | 0.00 | 0.01 | 0.01 | 99 | 1013.1 |
| 20260509130723 | 62 | 110 | 0.0 | 0.0 | 0.00 | 0.01 | 0.01 | 99 | 1013.0 |
| 20260509130219 | 62 | 106 | 0.0 | 0.0 | 0.00 | 0.01 | 0.01 | 99 | 1012.8 |
| 20260509125716 | 62 | 110 | 0.0 | 0.0 | 0.00 | 0.01 | 0.01 | 99 | 1012.9 |
| 20260509125213 | 62 | 110 | 0.0 | 0.0 | 0.00 | 0.01 | 0.01 | 99 | 1012.6 |
| 20260509124709 | 62 | 108 | 0.0 | 0.0 | 0.00 | 0.01 | 0.01 | 99 | 1012.7 |
| 20260509124206 | 62 | 109 | 0.0 | 0.0 | 0.00 | 0.01 | 0.01 | 99 | 1012.5 |
| 20260509123704 | 62 | 108 | 0.0 | 0.0 | 0.00 | 0.01 | 0.01 | 99 | 1012.4 |
| 20260509123201 | 62 | 108 | 0.0 | 0.0 | 0.00 | 0.01 | 0.01 | 99 | 1012.6 |
| 20260509122656 | 61 | 106 | 0.0 | 0.0 | 0.00 | 0.01 | 0.01 | 99 | 1012.7 |
| 20260509122153 | 61 | 110 | 0.0 | 0.0 | 0.00 | 0.01 | 0.01 | 99 | 1012.5 |
| 20260509121650 | 61 | 110 | 0.0 | 0.0 | 0.00 | 0.01 | 0.01 | 99 | 1012.7 |
| 20260509121148 | 61 | 110 | 0.0 | 0.0 | 0.00 | 0.01 | 0.01 | 99 | 1012.8 |
| 20260509120646 | 61 | 108 | 0.0 | 0.0 | 0.00 | 0.01 | 0.01 | 99 | 1012.6 |
| 20260509120144 | 61 | 109 | 0.0 | 0.0 | 0.00 | 0.01 | 0.01 | 99 | 1012.4 |
| 20260509115641 | 61 | 109 | 0.0 | 0.0 | 0.00 | 0.01 | 0.01 | 99 | 1012.5 |
| 20260509115138 | 61 | 109 | 0.0 | 0.0 | 0.00 | 0.01 | 0.01 | 99 | 1012.5 |
| 20260509114636 | 61 | 102 | 0.0 | 0.0 | 0.00 | 0.01 | 0.01 | 99 | 1012.4 |
| 20260509114135 | 61 | 91 | 1.0 | 2.0 | 0.00 | 0.01 | 0.01 | 99 | 1012.7 |
| 20260509113633 | 61 | 108 | 0.0 | 0.0 | 0.00 | 0.01 | 0.01 | 99 | 1012.9 |
| 20260509113130 | 61 | 117 | 0.0 | 0.0 | 0.00 | 0.01 | 0.01 | 99 | 1012.6 |
| 20260509112626 | 61 | 142 | 1.0 | 2.0 | 0.00 | 0.01 | 0.01 | 99 | 1012.5 |
| 20260509112124 | 61 | 115 | 0.0 | 0.0 | 0.00 | 0.01 | 0.01 | 99 | 1012.7 |
| 20260509111620 | 61 | 108 | 0.0 | 0.0 | 0.00 | 0.01 | 0.01 | 99 | 1012.6 |
| 20260509111117 | 60 | 109 | 0.0 | 0.0 | 0.00 | 0.01 | 0.01 | 99 | 1012.6 |
| 20260509110614 | 60 | 108 | 0.0 | 0.0 | 0.00 | 0.01 | 0.01 | 99 | 1012.7 |
| 20260509110112 | 60 | 108 | 0.0 | 0.0 | 0.00 | 0.01 | 0.01 | 99 | 1012.7 |
| 20260509105610 | 60 | 113 | 1.0 | 1.0 | 0.00 | 0.01 | 0.01 | 99 | 1012.6 |
| 20260509105107 | 60 | 108 | 0.0 | 0.0 | 0.00 | 0.01 | 0.01 | 99 | 1012.6 |
| 20260509104604 | 60 | 107 | 0.0 | 0.0 | 0.00 | 0.01 | 0.01 | 99 | 1012.2 |
| 20260509104100 | 60 | 108 | 0.0 | 0.0 | 0.00 | 0.01 | 0.01 | 99 | 1012.3 |
| 20260509103558 | 60 | 109 | 0.0 | 0.0 | 0.00 | 0.01 | 0.01 | 99 | 1012.1 |
| 20260509103056 | 60 | 109 | 0.0 | 0.0 | 0.00 | 0.01 | 0.01 | 99 | 1012.3 |
| 20260509102553 | 60 | 108 | 0.0 | 0.0 | 0.00 | 0.01 | 0.01 | 99 | 1012.1 |
| 20260509102050 | 60 | 108 | 0.0 | 0.0 | 0.00 | 0.01 | 0.01 | 99 | 1012.4 |
| 20260509101546 | 60 | 106 | 0.0 | 0.0 | 0.00 | 0.01 | 0.01 | 99 | 1012.2 |
| 20260509101043 | 60 | 109 | 0.0 | 0.0 | 0.00 | 0.01 | 0.01 | 99 | 1011.8 |
| 20260509100541 | 60 | 106 | 0.0 | 0.0 | 0.00 | 0.01 | 0.01 | 99 | 1011.9 |
| 20260509100038 | 60 | 108 | 0.0 | 0.0 | 0.00 | 0.01 | 0.01 | 99 | 1011.8 |